SCP
0 0 0 0 0 1 1 1 2 2 2 1 1 1 1 0 0 1 2 1 1 1 1 1 1 1 0 1 2 1 1 1 1 2 1 1 3 2 1 2 1 3 2
0 0 0 0 0 0 0 1 1 2 2 2 2 1 1 1 1 1 0 1 1 1 2 2 1 1 1 2 3 4 4 2 2 2 1 0 1 1 0 0 0 1 1
0 0 0 0 0 0 0 0 0 1 1 2 2 3 3 2 2 1 1 2 1 2 1 1 2 3 2 5 5 4 3 3 2 4 2 0 0 1 0 0 0 1 1
0 0 0 0 0 0 0 1 1 1 1 1 4 5 4 3 3 2 4 4 2 2 2 3 2 3 4 4 3 3 3 3 2 2 4 4 2 1 0 1 1 0 0
0 0 0 0 0 0 0 0 1 1 1 1 0 3 2 2 1 6 4 3 3 3 1 2 2 2 2 5 3 3 3 4 5 3 3 7 3 2 1 0 0 0 0
0 0 0 0 0 0 0 0 1 1 1 1 1 1 1 1 4 2 2 2 2 3 3 3 3 6 7 5 3 3 3 4 5 5 4 6 7 3 1 1 1 0 1
0 0 0 0 0 0 0 1 1 -0 1 1 1 1 2 3 3 2 3 2 2 2 1 1 2 1 1 1 3 3 4 5 4 4 5 5 4 2 3 3 1 1 1
0 0 0 0 0 0 0 0 1 1 -0 1 1 3 4 4 3 3 2 2 0 0 0 0 0 0 0 0 0 0 1 2 2 3 3 5 4 4 4 4 3 2 2
0 0 0 0 0 0 0 1 2 2 2 1 1 1 2 2 1 1 0 0 0 0 0 0 0 0 0 0 0 0 0 0 0 1 2 1 2 3 3 3 3 3 2
0 0 0 0 0 1 1 2 1 1 0 0 0 0 0 0 0 0 0 0 0 0 0 0 0 0 0 0 0 0 0 0 0 0 0 0 0 0 0 2 2 2 1
0 0 0 1 1 1 1 1 1 0 0 0 0 0 0 0 0 0 0 0 0 0 0 0 0 0 0 0 0 0 0 0 0 0 0 0 0 0 0 0 0 1 2
0 0 0 0 0 0 0 0 0 0 0 0 0 0 0 0 0 0 0 0 0 0 0 0 0 0 0 0 0 0 0 0 0 0 0 0 0 0 0 0 0 0 0
0 0 0 0 0 0 0 0 0 0 0 0 0 0 0 0 0 0 0 0 0 0 0 0 0 0 0 0 0 0 0 0 0 0 0 0 0 0 0 0 0 0 0
0 0 0 0 0 0 0 0 0 0 0 0 0 0 0 0 0 0 0 0 0 0 0 0 0 0 0 0 0 0 0 0 0 0 0 0 0 0 0 0 0 0 0
0 0 0 0 0 0 0 0 0 0 0 0 0 0 0 0 0 0 0 0 0 0 0 0 0 0 0 0 0 0 0 0 0 0 0 0 0 0 0 0 0 0 0
0 0 -0 -0 0 0 0 0 0 0 0 0 0 0 0 0 0 0 0 0 0 0 0 0 0 0 0 0 0 0 0 0 0 0 0 0 0 0 0 0 0 0 0
-0 -0 -0 -0 -0 -0 -0 -0 -0 -0 -0 -0 0 0 0 0 0 0 0 0 0 0 0 0 0 0 0 0 0 0 0 0 0 0 0 0 0 0 0 0 0 0 0
-0 -0 -0 -0 0 -0 -0 0 0 -0 -0 -0 0 0 0 0 0 0 0 0 0 0 0 0 0 0 0 0 0 0 0 0 0 0 0 0 0 0 0 0 0 0 0
0 0 0 -0 0 0 0 0 0 -0 0 0 0 0 0 0 0 0 0 0 0 0 0 0 0 0 0 0 0 0 0 0 0 0 0 0 0 0 0 0 0 0 0
0 0 0 -0 0 0 0 0 0 0 0 0 0 0 0 0 0 0 0 0 0 0 0 0 0 0 0 0 0 0 0 0 0 0 0 0 0 0 0 0 0 0 0
0 0 0 0 0 0 0 0 0 0 0 0 0 0 0 0 0 0 0 0 0 0 0 0 0 0 0 0 0 -0 -0 0 0 0 0 0 0 0 0 0 0 0 0
0 0 0 0 0 0 0 0 0 0 0 0 0 0 0 0 0 0 0 0 0 0 0 0 -0 -0 -0 -0 -0 -0 -0 -0 0 0 0 0 0 0 0 0 0 0 0
0 0 0 0 0 0 0 0 0 0 0 0 0 0 0 0 0 0 0 0 0 0 -0 -0 -0 0 -0 0 0 0 0 0 0 0 0 0 0 0 0 0 0 0 0
0 0 0 0 0 0 0 0 0 0 0 0 0 0 0 0 0 0 0 0 0 0 -0 -0 0 0 0 0 0 0 0 0 0 0 0 0 0 0 0 0 0 0 0
0 0 0 0 0 0 0 0 0 0 0 0 0 0 0 0 0 0 0 0 0 0 0 0 0 0 0 0 0 0 0 0 0 0 0 0 0 0 0 0 0 0 0
0 0 0 0 0 0 0 0 0 0 0 0 0 0 0 0 0 0 0 0 0 0 0 0 0 0 0 -0 -0 0 0 0 0 0 0 0 0 0 0 0 0 0 0
Wind_Speed_500mb
38 32 32 29 27 30 30 30 36 37 37 34 32 33 31 30 30 33 42 38 35 37 37 35 31 47 40 35 31 35 33 32 28 39 36 43 41 45 34 35 38 47 46
44 38 33 30 27 23 27 28 28 32 39 33 32 28 31 30 32 31 38 41 39 38 36 37 38 43 35 36 33 33 31 34 33 40 34 41 40 31 41 44 50 40 39
47 42 35 29 26 24 21 25 28 30 31 31 28 31 25 28 27 29 33 35 40 39 38 40 34 41 39 35 37 36 38 40 39 42 31 27 42 37 45 49 44 46 32
46 42 37 31 27 22 20 19 21 24 25 29 35 36 30 30 30 35 34 40 38 30 35 36 36 37 31 31 35 39 42 38 39 37 42 45 48 39 41 48 53 51 53
51 49 45 39 31 23 20 19 19 19 23 23 31 35 32 34 32 35 37 29 30 26 32 29 23 29 21 26 32 36 41 45 52 57 50 52 40 46 47 49 49 65 60
45 43 41 36 32 28 25 23 19 15 16 22 24 36 26 25 23 24 26 22 22 21 29 29 24 25 31 35 38 44 45 48 59 62 61 60 47 51 50 53 58 64 59
47 44 44 42 40 37 28 21 14 11 11 16 16 19 21 25 21 16 11 6 11 11 10 14 23 24 31 31 33 43 44 45 44 52 60 62 64 64 66 60 68 64 56
45 44 44 40 39 37 35 15 11 11 10 13 14 16 19 20 17 18 13 11 2 4 5 10 18 24 30 31 33 28 22 27 38 41 45 47 56 65 71 70 70 68 68
40 39 36 34 31 30 21 15 21 17 20 26 25 27 27 26 10 10 7 4 9 6 6 13 15 18 23 26 30 21 33 33 35 35 34 41 43 42 51 58 59 59 60
28 24 20 19 19 25 25 26 23 22 24 28 27 27 26 24 19 14 10 4 1 7 12 13 18 23 24 28 31 27 26 35 34 34 41 46 38 41 43 53 55 58 63
36 35 34 31 29 26 27 31 37 36 35 33 34 32 27 23 18 14 10 6 9 13 15 16 15 18 22 26 32 32 31 33 37 38 40 43 41 42 43 44 46 54 55
41 42 41 42 43 43 48 48 43 39 34 31 30 27 22 16 9 5 7 12 13 15 18 20 24 22 24 26 28 31 32 33 36 40 42 44 43 48 47 47 51 51 51
53 54 56 58 57 53 50 46 41 37 32 27 25 22 20 16 14 14 16 16 18 21 21 23 24 25 26 27 25 34 37 38 38 38 40 43 44 49 49 51 51 51 56
63 62 61 58 55 51 48 43 36 29 25 24 21 19 18 15 19 20 19 20 20 22 25 24 24 23 25 22 36 43 44 41 37 38 41 41 41 50 54 51 46 48 52
66 61 59 56 52 47 41 37 32 26 20 17 17 19 22 24 29 24 19 20 22 22 21 25 22 22 19 30 40 40 41 36 34 36 39 38 47 53 48 44 42 48 50
57 55 52 50 46 42 35 32 25 15 13 22 23 24 26 24 21 22 21 22 23 26 25 22 22 23 17 32 34 36 39 31 34 36 39 41 42 39 42 49 55 57 57
54 53 50 44 40 36 31 26 19 16 15 16 15 19 18 16 17 16 17 21 23 24 23 21 19 17 25 30 32 38 36 34 34 38 41 41 38 50 47 43 45 47 48
55 49 43 40 32 31 28 20 16 17 19 19 20 19 18 16 17 18 21 21 19 21 21 19 19 18 21 32 32 40 40 39 43 47 49 48 46 44 48 49 54 50 48
49 45 40 38 28 25 19 16 15 16 15 15 15 16 16 15 16 19 19 18 18 19 18 18 20 22 25 36 37 48 48 50 51 46 46 43 44 51 52 66 73 76 75
39 39 40 33 24 20 14 15 15 14 14 15 15 14 14 14 17 18 16 16 17 18 19 23 22 27 30 38 46 47 44 47 50 52 46 51 48 60 67 71 78 83 77
46 41 33 28 21 15 14 16 13 14 13 12 10 12 14 15 16 13 14 16 20 24 25 28 29 26 29 30 36 46 53 53 56 52 45 44 50 52 49 45 51 55 55
33 29 27 21 13 9 12 12 10 10 10 8 10 11 12 11 10 14 16 17 21 25 32 27 26 23 29 33 40 45 41 37 42 41 42 44 49 51 44 46 47 59 51
23 21 21 17 8 7 8 6 9 8 8 6 8 10 12 12 11 15 15 14 23 30 24 23 25 28 30 36 46 46 43 36 35 36 42 54 59 58 52 52 59 66 65
23 17 18 14 11 9 9 8 7 6 4 4 9 9 11 15 10 9 11 17 23 23 23 24 26 29 33 38 46 49 46 36 50 51 51 50 52 54 57 62 66 78 71
22 18 12 9 8 7 7 7 6 3 4 6 6 9 9 12 9 9 10 12 22 27 27 29 31 31 31 38 37 42 53 47 48 50 51 58 62 65 67 64 67 71 73
17 13 9 5 2 2 3 4 3 4 3 3 5 10 10 10 9 11 14 23 26 23 25 30 27 24 30 34 28 32 44 47 52 51 63 74 72 72 66 70 67 64 63
Wind_Direction_500mb
187 185 180 181 188 197 197 199 207 207 205 212 216 221 225 235 236 228 247 241 245 243 243 249 237 251 239 231 235 245 250 254 260 270 275 272 267 281 274 269 271 264 265
197 186 188 187 188 191 201 206 206 209 211 207 212 218 227 238 245 254 262 256 248 254 254 251 238 247 240 245 237 234 241 251 255 259 269 270 277 252 268 283 280 272 278
199 187 190 192 193 195 204 205 210 211 218 208 220 222 222 230 244 250 249 251 244 243 241 246 236 237 239 247 245 248 251 255 257 254 246 272 276 276 275 281 290 267 270
209 211 201 197 200 202 198 198 201 209 218 224 222 230 226 242 248 251 251 242 241 222 240 239 236 247 246 257 262 256 257 255 255 251 255 264 268 268 279 280 283 275 275
214 220 220 212 208 207 207 210 212 213 215 228 216 235 234 244 255 250 256 263 262 252 254 253 246 261 267 273 268 265 256 263 262 266 267 268 263 266 259 271 276 289 272
218 217 215 219 220 218 216 198 190 202 217 215 230 223 231 237 249 241 245 252 250 250 237 247 262 248 256 265 267 266 270 269 267 264 266 259 262 264 265 270 275 278 268
220 221 219 221 223 222 218 168 167 178 200 213 220 229 219 226 237 238 242 177 187 182 252 262 274 276 276 276 276 277 278 273 276 274 271 269 271 273 275 272 274 277 271
212 216 218 214 218 215 222 180 152 155 179 183 176 188 195 203 202 182 157 158 120 212 240 266 271 273 277 280 280 292 289 291 281 292 294 289 279 275 273 275 273 273 271
206 204 208 211 214 218 203 150 144 145 184 170 168 172 170 172 192 144 101 92 148 0 279 289 289 294 291 291 290 300 292 298 295 288 293 293 291 287 283 279 278 280 283
192 174 127 126 146 116 117 114 118 120 120 112 108 108 106 102 101 116 145 125 312 328 330 312 310 314 312 312 305 304 298 294 301 297 286 292 300 294 294 294 286 279 278
117 120 122 126 125 119 121 123 120 118 111 107 103 100 94 92 93 88 70 29 344 340 337 328 319 314 320 319 310 307 314 297 297 298 300 297 297 297 294 290 287 290 286
125 125 121 120 120 120 117 115 118 113 105 98 94 92 89 83 72 30 331 317 313 305 302 302 301 306 318 307 314 314 308 304 301 302 303 301 300 292 294 292 288 288 287
126 123 122 121 121 120 119 115 111 106 100 92 83 75 70 56 35 14 354 344 333 332 328 329 329 333 324 332 305 312 314 314 312 313 310 306 306 303 298 289 287 287 286
131 128 127 125 123 121 118 114 108 99 93 83 72 49 41 23 1 349 345 339 339 333 337 337 347 342 345 307 316 321 318 318 318 316 306 307 309 287 284 287 289 291 287
131 130 128 127 124 122 117 110 102 88 73 67 42 15 355 352 337 340 341 345 347 349 343 346 346 343 352 312 330 335 335 334 327 317 310 311 291 284 291 297 295 281 288
132 133 130 128 126 118 113 104 99 69 58 28 11 4 358 351 342 348 354 354 350 347 355 355 353 350 315 329 346 352 354 341 338 331 328 324 330 321 304 297 288 286 291
133 131 129 128 123 120 112 103 94 74 28 30 11 13 12 5 5 6 2 359 0 359 1 354 350 357 324 330 346 352 354 341 335 331 326 332 326 327 333 328 322 314 302
133 131 132 125 123 114 102 93 68 42 26 14 10 7 12 14 5 360 360 1 357 356 359 350 350 344 340 337 341 343 342 341 337 338 336 331 325 320 320 320 313 306 299
134 132 129 119 114 102 98 81 51 31 26 16 12 15 15 10 355 0 359 359 4 358 4 351 344 346 347 331 341 344 341 336 335 330 326 330 337 332 312 308 307 305 301
139 129 121 114 112 94 80 65 37 29 22 19 17 14 9 0 1 2 2 1 11 354 4 357 348 351 347 342 340 334 336 330 327 330 334 338 326 307 308 304 303 301 309
135 125 121 116 99 82 52 35 29 24 19 22 14 10 360 6 357 4 2 13 7 3 2 359 359 356 342 347 337 339 335 330 333 339 333 332 330 336 340 338 331 328 328
132 126 115 102 89 44 20 32 20 16 26 30 21 359 5 6 354 13 12 20 3 7 9 358 357 358 358 349 351 354 354 358 358 360 358 360 0 357 359 355 352 348 341
123 122 118 104 70 11 51 40 9 17 32 12 11 4 2 7 15 14 17 12 23 15 4 359 0 6 4 11 13 15 11 17 16 20 19 18 7 3 10 10 9 12 4
146 131 101 88 71 37 21 17 12 19 15 3 19 358 357 22 5 30 17 11 8 6 359 359 12 17 17 17 19 21 23 28 35 34 29 25 15 19 21 20 24 28 20
136 115 109 88 56 23 17 5 7 0 32 10 1 359 1 355 6 8 17 15 333 353 354 6 17 26 22 21 20 20 31 41 41 36 34 28 23 25 24 27 28 26 23
107 97 97 119 110 54 357 349 358 18 32 18 337 346 356 6 16 24 358 337 338 344 357 9 14 18 18 12 23 29 44 40 47 40 38 35 34 30 28 28 23 26 24
Wind_Speed_850mb
38 32 32 29 27 30 30 30 36 37 37 34 32 33 31 30 30 33 42 38 35 37 37 35 31 47 40 35 31 35 33 32 28 39 36 43 41 45 34 35 38 47 46
44 38 33 30 27 23 27 28 28 32 39 33 32 28 31 30 32 31 38 41 39 38 36 37 38 43 35 36 33 33 31 34 33 40 34 41 40 31 41 44 50 40 39
47 42 35 29 26 24 21 25 28 30 31 31 28 31 25 28 27 29 33 35 40 39 38 40 34 41 39 35 37 36 38 40 39 42 31 27 42 37 45 49 44 46 32
46 42 37 31 27 22 20 19 21 24 25 29 35 36 30 30 30 35 34 40 38 30 35 36 36 37 31 31 35 39 42 38 39 37 42 45 48 39 41 48 53 51 53
51 49 45 39 31 23 20 19 19 19 23 23 31 35 32 34 32 35 37 29 30 26 32 29 23 29 21 26 32 36 41 45 52 57 50 52 40 46 47 49 49 65 60
45 43 41 36 32 28 25 23 19 15 16 22 24 36 26 25 23 24 26 22 22 21 29 29 24 25 31 35 38 44 45 48 59 62 61 60 47 51 50 53 58 64 59
47 44 44 42 40 37 28 21 14 11 11 16 16 19 21 25 21 16 11 6 11 11 10 14 23 24 31 31 33 43 44 45 44 52 60 62 64 64 66 60 68 64 56
45 44 44 40 39 37 35 15 11 11 10 13 14 16 19 20 17 18 13 11 2 4 5 10 18 24 30 31 33 28 22 27 38 41 45 47 56 65 71 70 70 68 68
40 39 36 34 31 30 21 15 21 17 20 26 25 27 27 26 10 10 7 4 9 6 6 13 15 18 23 26 30 21 33 33 35 35 34 41 43 42 51 58 59 59 60
28 24 20 19 19 25 25 26 23 22 24 28 27 27 26 24 19 14 10 4 1 7 12 13 18 23 24 28 31 27 26 35 34 34 41 46 38 41 43 53 55 58 63
36 35 34 31 29 26 27 31 37 36 35 33 34 32 27 23 18 14 10 6 9 13 15 16 15 18 22 26 32 32 31 33 37 38 40 43 41 42 43 44 46 54 55
41 42 41 42 43 43 48 48 43 39 34 31 30 27 22 16 9 5 7 12 13 15 18 20 24 22 24 26 28 31 32 33 36 40 42 44 43 48 47 47 51 51 51
53 54 56 58 57 53 50 46 41 37 32 27 25 22 20 16 14 14 16 16 18 21 21 23 24 25 26 27 25 34 37 38 38 38 40 43 44 49 49 51 51 51 56
63 62 61 58 55 51 48 43 36 29 25 24 21 19 18 15 19 20 19 20 20 22 25 24 24 23 25 22 36 43 44 41 37 38 41 41 41 50 54 51 46 48 52
66 61 59 56 52 47 41 37 32 26 20 17 17 19 22 24 29 24 19 20 22 22 21 25 22 22 19 30 40 40 41 36 34 36 39 38 47 53 48 44 42 48 50
57 55 52 50 46 42 35 32 25 15 13 22 23 24 26 24 21 22 21 22 23 26 25 22 22 23 17 32 34 36 39 31 34 36 39 41 42 39 42 49 55 57 57
54 53 50 44 40 36 31 26 19 16 15 16 15 19 18 16 17 16 17 21 23 24 23 21 19 17 25 30 32 38 36 34 34 38 41 41 38 50 47 43 45 47 48
55 49 43 40 32 31 28 20 16 17 19 19 20 19 18 16 17 18 21 21 19 21 21 19 19 18 21 32 32 40 40 39 43 47 49 48 46 44 48 49 54 50 48
49 45 40 38 28 25 19 16 15 16 15 15 15 16 16 15 16 19 19 18 18 19 18 18 20 22 25 36 37 48 48 50 51 46 46 43 44 51 52 66 73 76 75
39 39 40 33 24 20 14 15 15 14 14 15 15 14 14 14 17 18 16 16 17 18 19 23 22 27 30 38 46 47 44 47 50 52 46 51 48 60 67 71 78 83 77
46 41 33 28 21 15 14 16 13 14 13 12 10 12 14 15 16 13 14 16 20 24 25 28 29 26 29 30 36 46 53 53 56 52 45 44 50 52 49 45 51 55 55
33 29 27 21 13 9 12 12 10 10 10 8 10 11 12 11 10 14 16 17 21 25 32 27 26 23 29 33 40 45 41 37 42 41 42 44 49 51 44 46 47 59 51
23 21 21 17 8 7 8 6 9 8 8 6 8 10 12 12 11 15 15 14 23 30 24 23 25 28 30 36 46 46 43 36 35 36 42 54 59 58 52 52 59 66 65
23 17 18 14 11 9 9 8 7 6 4 4 9 9 11 15 10 9 11 17 23 23 23 24 26 29 33 38 46 49 46 36 50 51 51 50 52 54 57 62 66 78 71
22 18 12 9 8 7 7 7 6 3 4 6 6 9 9 12 9 9 10 12 22 27 27 29 31 31 31 38 37 42 53 47 48 50 51 58 62 65 67 64 67 71 73
17 13 9 5 2 2 3 4 3 4 3 3 5 10 10 10 9 11 14 23 26 23 25 30 27 24 30 34 28 32 44 47 52 51 63 74 72 72 66 70 67 64 63
Wind_Direction_850mb
187 185 180 181 188 197 197 199 207 207 205 212 216 221 225 235 236 228 247 241 245 243 243 249 237 251 239 231 235 245 250 254 260 270 275 272 267 281 274 269 271 264 265
197 186 188 187 188 191 201 206 206 209 211 207 212 218 227 238 245 254 262 256 248 254 254 251 238 247 240 245 237 234 241 251 255 259 269 270 277 252 268 283 280 272 278
199 187 190 192 193 195 204 205 210 211 218 208 220 222 222 230 244 250 249 251 244 243 241 246 236 237 239 247 245 248 251 255 257 254 246 272 276 276 275 281 290 267 270
209 211 201 197 200 202 198 198 201 209 218 224 222 230 226 242 248 251 251 242 241 222 240 239 236 247 246 257 262 256 257 255 255 251 255 264 268 268 279 280 283 275 275
214 220 220 212 208 207 207 210 212 213 215 228 216 235 234 244 255 250 256 263 262 252 254 253 246 261 267 273 268 265 256 263 262 266 267 268 263 266 259 271 276 289 272
218 217 215 219 220 218 216 198 190 202 217 215 230 223 231 237 249 241 245 252 250 250 237 247 262 248 256 265 267 266 270 269 267 264 266 259 262 264 265 270 275 278 268
220 221 219 221 223 222 218 168 167 178 200 213 220 229 219 226 237 238 242 177 187 182 252 262 274 276 276 276 276 277 278 273 276 274 271 269 271 273 275 272 274 277 271
212 216 218 214 218 215 222 180 152 155 179 183 176 188 195 203 202 182 157 158 120 212 240 266 271 273 277 280 280 292 289 291 281 292 294 289 279 275 273 275 273 273 271
206 204 208 211 214 218 203 150 144 145 184 170 168 172 170 172 192 144 101 92 148 0 279 289 289 294 291 291 290 300 292 298 295 288 293 293 291 287 283 279 278 280 283
192 174 127 126 146 116 117 114 118 120 120 112 108 108 106 102 101 116 145 125 312 328 330 312 310 314 312 312 305 304 298 294 301 297 286 292 300 294 294 294 286 279 278
117 120 122 126 125 119 121 123 120 118 111 107 103 100 94 92 93 88 70 29 344 340 337 328 319 314 320 319 310 307 314 297 297 298 300 297 297 297 294 290 287 290 286
125 125 121 120 120 120 117 115 118 113 105 98 94 92 89 83 72 30 331 317 313 305 302 302 301 306 318 307 314 314 308 304 301 302 303 301 300 292 294 292 288 288 287
126 123 122 121 121 120 119 115 111 106 100 92 83 75 70 56 35 14 354 344 333 332 328 329 329 333 324 332 305 312 314 314 312 313 310 306 306 303 298 289 287 287 286
131 128 127 125 123 121 118 114 108 99 93 83 72 49 41 23 1 349 345 339 339 333 337 337 347 342 345 307 316 321 318 318 318 316 306 307 309 287 284 287 289 291 287
131 130 128 127 124 122 117 110 102 88 73 67 42 15 355 352 337 340 341 345 347 349 343 346 346 343 352 312 330 335 335 334 327 317 310 311 291 284 291 297 295 281 288
132 133 130 128 126 118 113 104 99 69 58 28 11 4 358 351 342 348 354 354 350 347 355 355 353 350 315 329 346 352 354 341 338 331 328 324 330 321 304 297 288 286 291
133 131 129 128 123 120 112 103 94 74 28 30 11 13 12 5 5 6 2 359 0 359 1 354 350 357 324 330 346 352 354 341 335 331 326 332 326 327 333 328 322 314 302
133 131 132 125 123 114 102 93 68 42 26 14 10 7 12 14 5 360 360 1 357 356 359 350 350 344 340 337 341 343 342 341 337 338 336 331 325 320 320 320 313 306 299
134 132 129 119 114 102 98 81 51 31 26 16 12 15 15 10 355 0 359 359 4 358 4 351 344 346 347 331 341 344 341 336 335 330 326 330 337 332 312 308 307 305 301
139 129 121 114 112 94 80 65 37 29 22 19 17 14 9 0 1 2 2 1 11 354 4 357 348 351 347 342 340 334 336 330 327 330 334 338 326 307 308 304 303 301 309
135 125 121 116 99 82 52 35 29 24 19 22 14 10 360 6 357 4 2 13 7 3 2 359 359 356 342 347 337 339 335 330 333 339 333 332 330 336 340 338 331 328 328
132 126 115 102 89 44 20 32 20 16 26 30 21 359 5 6 354 13 12 20 3 7 9 358 357 358 358 349 351 354 354 358 358 360 358 360 0 357 359 355 352 348 341
123 122 118 104 70 11 51 40 9 17 32 12 11 4 2 7 15 14 17 12 23 15 4 359 0 6 4 11 13 15 11 17 16 20 19 18 7 3 10 10 9 12 4
146 131 101 88 71 37 21 17 12 19 15 3 19 358 357 22 5 30 17 11 8 6 359 359 12 17 17 17 19 21 23 28 35 34 29 25 15 19 21 20 24 28 20
136 115 109 88 56 23 17 5 7 0 32 10 1 359 1 355 6 8 17 15 333 353 354 6 17 26 22 21 20 20 31 41 41 36 34 28 23 25 24 27 28 26 23
107 97 97 119 110 54 357 349 358 18 32 18 337 346 356 6 16 24 358 337 338 344 357 9 14 18 18 12 23 29 44 40 47 40 38 35 34 30 28 28 23 26 24